DW9112 Weather Reports


time (UTC)temp
F
wind
direction
speed
knots
gust
knots
rain 1hr
in
rain 24hr
in
rain mn
in
humidity
%
barometer
mb
20260510150139 82 294 2.6 7.0 0.00 0.65 0.00 81 1016.4
20260510144635 81 190 3.5 8.7 0.00 0.65 0.00 84 1016.1
20260510143131 81 207 2.6 7.8 0.00 0.65 0.00 85 1016.2
20260510141625 79 229 1.7 6.1 0.00 0.65 0.00 87 1016.1
20260510140122 78 234 3.5 7.0 0.00 0.65 0.00 88 1016.1
20260510134623 77 164 1.7 5.2 0.00 0.65 0.00 91 1016.1
20260510133120 75 165 0.9 7.0 0.00 0.65 0.00 94 1015.9
20260510131627 74 159 0.0 1.7 0.00 0.65 0.00 94 1015.8
20260510130124 73 157 0.0 0.0 0.00 0.65 0.00 94 1015.9
20260510124645 72 157 0.0 0.0 0.00 0.65 0.00 94 1015.7
20260510123120 72 157 0.0 0.0 0.00 0.65 0.00 94 1015.4
20260510121620 71 157 0.0 0.0 0.00 0.65 0.00 94 1015.2
20260510120121 70 157 0.0 0.0 0.00 0.65 0.00 94 1015.2
20260510114628 70 157 0.0 0.0 0.00 0.65 0.00 94 1015.0
20260510113123 69 157 0.0 0.0 0.00 0.65 0.00 94 1014.7
20260510111640 69 157 0.0 0.0 0.00 0.65 0.00 94 1014.5
20260510110133 69 157 0.0 0.0 0.00 0.65 0.00 94 1014.4
20260510104638 69 157 0.0 0.0 0.00 0.65 0.00 94 1014.1
20260510103135 69 157 0.0 0.0 0.00 0.65 0.00 94 1013.9
20260510101630 69 157 0.0 0.0 0.00 0.65 0.00 94 1013.7
20260510100127 70 157 0.0 0.0 0.00 0.65 0.00 94 1013.5
20260510094622 70 157 0.0 0.0 0.00 0.65 0.00 94 1013.4
20260510093122 70 157 0.0 0.0 0.00 0.65 0.00 94 1013.4
20260510091641 70 157 0.0 0.0 0.00 0.65 0.00 94 1013.3
20260510090137 70 157 0.0 0.0 0.00 0.65 0.00 94 1013.1
20260510084633 71 157 0.0 0.0 0.00 0.65 0.00 94 1012.8
20260510083123 71 157 0.0 0.0 0.00 0.65 0.00 94 1012.7
20260510081624 71 157 0.0 0.0 0.00 0.65 0.00 94 1012.7
20260510080136 71 157 0.0 0.0 0.00 0.65 0.00 94 1012.6
20260510074634 71 157 0.0 0.0 0.00 0.65 0.00 94 1012.5
20260510073132 71 157 0.0 2.6 0.00 0.65 0.00 94 1012.6
20260510071630 71 156 0.0 5.2 0.00 0.65 0.00 94 1012.6
20260510070141 71 160 0.9 4.3 0.00 0.65 0.00 94 1012.5
20260510064639 71 166 0.9 4.3 0.00 0.65 0.00 94 1012.6
20260510063139 71 165 0.9 4.3 0.00 0.65 0.00 94 1012.7
20260510061631 71 159 0.0 3.5 0.00 0.65 0.00 93 1012.9
20260510060124 71 128 0.0 1.7 0.00 0.65 0.00 94 1013.1
20260510054631 71 128 0.0 1.7 0.00 0.65 0.00 94 1013.3
20260510053125 71 128 0.0 2.6 0.00 0.65 0.00 94 1013.7
20260510051626 71 57 0.0 0.0 0.00 0.65 0.00 93 1013.9
20260510050123 70 57 0.0 0.0 0.00 0.65 0.00 92 1014.1
20260510044622 70 57 0.0 0.0 0.00 0.65 0.00 92 1014.4
20260510043139 71 57 0.0 0.0 0.00 0.65 0.00 92 1014.6
20260510041622 71 57 0.0 0.0 0.00 0.65 0.00 92 1014.6
20260510040119 71 57 0.0 0.0 0.00 0.65 0.00 92 1014.5
20260510034637 71 57 0.0 0.0 0.00 0.65 0.65 91 1014.5
20260510033133 71 57 0.0 0.0 0.00 0.65 0.65 90 1014.5
20260510031632 71 57 0.0 0.0 0.00 0.65 0.65 90 1014.6
20260510030123 71 57 0.0 0.0 0.00 0.65 0.65 90 1014.7
20260510024634 71 57 0.0 0.0 0.00 0.65 0.65 90 1014.5
20260510023133 71 57 0.0 0.0 0.00 0.65 0.65 90 1014.2
20260510021634 71 57 0.0 0.0 0.00 0.65 0.65 90 1014.2
20260510020127 71 56 0.0 0.9 0.00 0.65 0.65 89 1013.5
20260510014626 71 56 0.0 0.0 0.00 0.65 0.65 89 1013.7
20260510013127 71 56 0.0 1.7 0.00 0.65 0.65 89 1013.7
20260510011623 71 56 0.0 0.9 0.00 0.65 0.65 89 1013.1
20260510010137 71 56 0.0 3.5 0.00 0.65 0.65 89 1012.9
20260510004638 72 56 0.9 2.6 0.00 0.65 0.65 88 1012.9
20260510003137 72 56 0.9 3.5 0.00 0.65 0.65 88 1012.6
20260510001635 72 57 0.9 5.2 0.00 0.65 0.65 88 1012.7
20260510000135 72 348 1.7 7.0 0.00 0.65 0.65 88 1012.9
20260509234632 73 333 3.5 7.0 0.00 0.65 0.65 88 1013.0
20260509233133 73 355 2.6 6.1 0.00 0.65 0.65 88 1013.0
20260509231630 73 321 0.9 4.3 0.00 0.65 0.65 88 1013.1
20260509230130 74 350 2.6 6.1 0.00 0.65 0.65 88 1013.1
20260509224629 74 323 0.0 4.3 0.00 0.65 0.65 88 1013.1
20260509223142 74 321 2.6 5.2 0.00 0.65 0.65 87 1012.8
20260509221640 75 333 0.0 5.2 0.00 0.65 0.65 87 1012.6
20260509220133 75 347 0.9 6.1 0.00 0.65 0.65 87 1012.7
20260509214633 75 349 2.6 6.1 0.00 0.83 0.65 87 1012.6
20260509213133 75 336 2.6 6.1 0.00 0.83 0.65 88 1012.7
20260509211627 75 333 0.9 2.6 0.00 0.83 0.65 88 1012.4
20260509210127 75 319 1.7 6.1 0.00 0.83 0.65 88 1012.2
20260509204639 75 319 1.7 7.0 0.00 1.04 0.65 88 1012.4
20260509203137 76 292 1.7 5.2 0.00 1.04 0.65 89 1012.3
20260509201638 76 288 1.7 6.1 0.01 1.04 0.65 89 1012.3
20260509200134 75 302 3.5 6.1 0.42 1.04 0.65 89 1012.2
20260509194635 75 290 0.9 3.5 0.65 1.09 0.65 89 1012.3
20260509193127 74 290 0.0 3.5 0.65 1.09 0.65 88 1012.3
20260509191641 74 254 2.6 6.1 0.64 1.08 0.64 87 1012.8
20260509190132 78 315 1.7 17.4 0.22 0.66 0.22 84 1012.6
20260509184633 80 360 1.7 4.3 0.00 0.44 0.00 79 1012.0
20260509183126 81 325 1.7 4.3 0.00 0.44 0.00 80 1012.2
20260509181641 80 299 1.7 3.5 0.00 0.44 0.00 80 1012.3
20260509180137 81 335 2.6 5.2 0.00 0.44 0.00 79 1012.5
20260509174631 80 280 0.0 3.5 0.00 0.44 0.00 80 1012.8
20260509173137 80 276 2.6 4.3 0.00 0.44 0.00 80 1013.1
20260509171623 80 277 1.7 5.2 0.00 0.44 0.00 81 1013.1
20260509170138 80 212 0.0 3.5 0.00 0.44 0.00 81 1013.2
20260509164639 79 209 0.9 4.3 0.00 0.44 0.00 81 1013.3
20260509163137 79 221 3.5 6.1 0.00 0.44 0.00 82 1013.3
20260509161636 78 255 0.0 3.5 0.00 0.44 0.00 85 1013.4
20260509160137 77 217 1.7 3.5 0.00 0.44 0.00 85 1013.3
20260509154637 77 217 0.0 2.6 0.00 0.44 0.00 86 1013.0
20260509153135 76 217 1.7 5.2 0.00 0.44 0.00 87 1013.2
20260509151630 76 217 0.9 6.1 0.00 0.44 0.00 88 1013.2